Latest Weather Observations for Batchelor

IDD60801

Issued at 5:05 pm CST Wednesday 22 October 2014 (issued every 30 minutes, with the page automatically refreshed every 10 minutes)

About weather observations | Map of weather stations | Latest weather observations for NT | Other Formats
Station Details ID: 014272 Name: BATCHELOR AIRPORT Lat: -13.05 Lon: 131.03 Height: 104.0 m
Data from the previous 72 hours. | See also: Recent months at Batchelor
Date/Time
CST
Temp
°C
App
Temp
°C
Dew
Point
Rel
Hum
%
Delta-T
°C
Wind Press
QNH
hPa
Press
MSL
hPa
Rain
since 9 am
mm
Dir
 
Spd
km/h
Gust
km/h
Spd
kts
Gust
kts
22/05:00pm 36.0 34.8 10.2 21 15.1 ESE 7 17 4 9 1009.6 1008.9 0.0
22/04:30pm 36.5 33.9 10.6 21 15.3 E 15 24 8 13 1009.7 1009.0 0.0
22/04:00pm 35.5 32.5 10.5 22 14.7 E 17 28 9 15 1009.9 1009.2 0.0
22/03:30pm 35.4 32.9 11.1 23 14.4 E 15 24 8 13 1010.2 1009.5 0.0
22/03:00pm 36.5 35.0 12.0 23 14.8 SE 11 20 6 11 1010.4 1009.7 0.0
22/02:30pm 35.5 34.4 13.1 26 13.7 ESE 11 20 6 11 1010.8 1010.1 0.0
22/02:00pm 35.0 34.7 14.3 29 12.8 ENE 9 19 5 10 1011.3 1010.6 0.0
22/01:30pm 35.0 34.1 13.8 28 13.0 ENE 11 20 6 11 1012.0 1011.3 0.0
22/01:00pm 33.9 33.4 14.9 32 11.8 NE 11 20 6 11 1012.9 1012.1 0.0
22/12:30pm 33.7 33.0 14.2 30 12.0 ENE 11 19 6 10 1013.4 1012.6 0.0
22/12:00pm 33.7 31.8 15.7 34 11.3 E 20 30 11 16 1014.0 1013.2 0.0
22/11:30am 32.3 32.6 14.9 35 10.8 NE 7 15 4 8 1014.5 1013.7 0.0
22/11:00am 31.6 32.4 18.2 44 8.7 ENE 11 20 6 11 1015.1 1014.3 0.0
22/10:30am 31.0 32.3 18.4 47 8.2 NE 9 15 5 8 1015.6 1014.8 0.0
22/10:00am 30.9 32.0 18.9 48 7.8 ENE 11 19 6 10 1015.9 1015.1 0.0
22/09:30am 30.0 31.5 18.8 51 7.3 ESE 9 17 5 9 1016.2 1015.4 0.0
22/09:00am 28.6 30.9 19.8 59 5.8 NNE 7 9 4 5 1016.1 1015.3 0.0
22/08:30am 27.6 30.2 20.4 65 4.7 NNW 7 13 4 7 1015.5 1014.7 0.0
22/08:00am 26.7 30.0 21.5 73 3.5 N 6 9 3 5 1015.2 1014.4 0.0
22/07:30am 25.6 28.9 21.5 78 2.7 NW 6 7 3 4 1014.8 1014.0 0.0
22/07:00am 24.1 27.9 21.0 83 2.0 NNW 2 4 1 2 1014.5 1013.7 0.0
22/06:30am 23.4 26.6 20.5 84 1.9 NNW 4 4 2 2 1014.2 1013.4 0.0
22/06:00am 23.4 26.5 20.2 82 2.1 N 4 4 2 2 1014.0 1013.2 0.0
22/05:30am 23.6 26.8 19.7 79 2.5 N 2 4 1 2 1013.9 1013.1 0.0
22/05:00am 24.4 27.8 20.1 77 2.8 N 2 6 1 3 1013.8 1013.0 0.0
22/04:30am 24.8 27.3 20.3 76 2.9 N 7 11 4 6 1013.6 1012.8 0.0
22/04:00am 25.0 27.8 20.5 76 2.9 N 6 7 3 4 1013.5 1012.7 0.0
22/03:30am 25.1 28.0 21.0 78 2.7 NNE 7 11 4 6 1013.6 1012.8 0.0
22/03:00am 24.9 27.8 20.6 77 2.8 NNE 6 7 3 4 1013.6 1012.8 0.0
22/02:30am 25.1 28.0 20.6 76 3.0 NNE 6 7 3 4 1013.5 1012.7 0.0
22/02:00am 25.4 28.1 20.2 73 3.4 N 6 7 3 4 1013.7 1012.9 0.0
22/01:30am 25.6 28.7 20.2 72 3.5 N 4 6 2 3 1014.0 1013.2 0.0
22/01:00am 25.8 28.8 20.1 71 3.7 N 4 6 2 3 1014.4 1013.6 0.0
22/12:30am 26.2 29.4 20.5 71 3.7 N 4 7 2 4 1014.8 1014.0 0.0
22/12:00am 26.0 29.7 21.4 76 3.1 N 4 7 2 4 1015.0 1014.2 0.0
 
Date/Time
CST
Temp
°C
App
Temp
°C
Dew
Point
Rel
Hum
%
Delta-T
°C
Wind Press
QNH
hPa
Press
MSL
hPa
Rain
since 9 am
mm
Dir
 
Spd
km/h
Gust
km/h
Spd
kts
Gust
kts
21/11:30pm 26.2 30.0 21.0 73 3.4 N 2 6 1 3 1015.0 1014.2 0.0
21/11:00pm 27.0 31.0 21.3 71 3.8 WSW 2 4 1 2 1015.0 1014.2 0.0
21/10:30pm 27.2 30.4 21.2 69 4.0 NNW 6 7 3 4 1015.1 1014.3 0.0
21/10:00pm 27.5 30.6 21.1 68 4.3 WNW 6 11 3 6 1014.6 1013.8 0.0
21/09:30pm 27.8 30.1 20.6 65 4.8 NW 9 15 5 8 1014.3 1013.5 0.0
21/09:00pm 28.3 30.4 20.1 61 5.4 W 9 13 5 7 1013.7 1012.9 0.0
21/08:30pm 28.7 31.0 19.9 59 5.8 W 7 13 4 7 1013.2 1012.4 0.0
21/08:00pm 29.3 30.9 19.9 57 6.2 WNW 11 19 6 10 1013.0 1012.2 0.0
21/07:30pm 29.8 30.9 20.4 57 6.2 W 15 22 8 12 1012.5 1011.8 0.0
21/07:00pm 30.6 31.9 20.2 53 6.9 WNW 13 20 7 11 1011.9 1011.2 0.0
21/06:30pm 32.4 34.3 18.9 44 8.8 NW 7 19 4 10 1011.6 1010.9 0.0
21/06:00pm 35.0 33.6 9.4 21 14.7 E 7 11 4 6 1011.0 1010.3 0.0
21/05:30pm 35.9 34.5 9.4 20 15.3 S 7 15 4 8 1010.8 1010.1 0.0
21/05:00pm 35.5 34.0 9.1 20 15.2 ENE 7 13 4 7 1010.5 1009.8 0.0
21/04:30pm 36.4 33.5 9.8 20 15.5 E 15 24 8 13 1010.5 1009.8 0.0
21/04:00pm 36.2 34.3 10.4 21 15.1 NE 11 20 6 11 1010.6 1009.9 0.0
21/03:30pm 34.8 33.3 10.6 23 14.2 SE 9 17 5 9 1010.9 1010.2 0.0
21/03:00pm 35.7 32.9 11.4 23 14.5 ESE 17 24 9 13 1011.2 1010.5 0.0
21/02:30pm 35.0 33.7 11.4 24 14.0 ENE 9 17 5 9 1011.5 1010.8 0.0
21/02:00pm 34.6 32.9 11.1 24 13.8 ESE 11 30 6 16 1012.0 1011.3 0.0
21/01:30pm 35.1 34.4 11.5 24 14.0 E 6 13 3 7 1012.9 1012.1 0.0
21/01:00pm 34.5 33.5 12.2 26 13.4 ENE 9 17 5 9 1013.7 1012.9 0.0
21/12:30pm 34.5 32.5 11.6 25 13.6 E 13 33 7 18 1014.2 1013.4 0.0
21/12:00pm 34.7 32.8 13.0 27 13.2 ENE 15 28 8 15 1015.1 1014.3 0.0
21/11:30am 33.4 31.1 11.9 27 12.8 E 15 22 8 12 1015.5 1014.7 0.0
21/11:00am 32.0 31.5 13.7 33 11.1 ENE 9 17 5 9 1015.9 1015.1 0.0
21/10:30am 31.9 31.2 15.4 37 10.3 ENE 13 20 7 11 1016.3 1015.5 0.0
21/10:00am 30.8 29.8 17.5 45 8.5 ESE 19 24 10 13 1016.5 1015.7 0.0
21/09:30am 29.8 31.1 19.2 53 6.9 NE 11 15 6 8 1016.8 1016.0 0.0
21/09:00am 29.2 31.4 20.4 59 5.8 E 9 17 5 9 1016.9 1016.1 0.0
21/08:30am 28.0 30.7 21.3 67 4.5 E 9 15 5 8 1016.9 1016.1 0.0
21/08:00am 27.3 30.3 20.9 68 4.2 NNE 6 9 3 5 1016.0 1015.2 0.0
21/07:30am 25.9 29.4 21.1 75 3.2 N 4 6 2 3 1015.6 1014.8 0.0
21/07:00am 24.7 28.6 21.2 81 2.3 N 2 4 1 2 1015.1 1014.3 0.0
21/06:30am 24.2 27.7 21.1 83 2.0 N 4 6 2 3 1014.7 1013.9 0.0
21/06:00am 23.9 27.4 20.4 81 2.3 N 2 6 1 3 1014.6 1013.8 0.0
21/05:30am 24.5 27.7 21.2 82 2.2 N 6 7 3 4 1014.4 1013.6 0.0
21/05:00am 24.2 28.1 21.1 83 2.0 NNW 2 4 1 2 1014.2 1013.4 0.0
21/04:30am 24.5 27.9 21.0 81 2.3 NNW 4 7 2 4 1014.1 1013.3 0.0
21/04:00am 24.9 28.0 21.0 79 2.6 N 6 11 3 6 1013.8 1013.0 0.0
21/03:30am 25.0 27.9 21.1 79 2.6 N 7 9 4 5 1013.7 1012.9 0.0
21/03:00am 24.9 27.8 20.6 77 2.8 NNE 6 7 3 4 1013.9 1013.1 0.0
21/02:30am 24.6 27.0 19.7 74 3.2 ENE 6 7 3 4 1014.1 1013.3 0.0
21/02:00am 25.1 27.7 19.2 70 3.8 NNE 4 7 2 4 1014.2 1013.4 0.0
21/01:30am 25.2 27.6 18.9 68 4.0 N 4 7 2 4 1014.2 1013.4 0.0
21/01:00am 25.8 28.3 19.0 66 4.4 N 4 6 2 3 1014.4 1013.6 0.0
21/12:30am 25.8 28.1 19.4 67 4.1 NNE 6 7 3 4 1014.5 1013.7 0.0
21/12:00am 26.1 29.1 20.0 69 4.0 NNE 4 7 2 4 1014.8 1014.0 0.0
 
Date/Time
CST
Temp
°C
App
Temp
°C
Dew
Point
Rel
Hum
%
Delta-T
°C
Wind Press
QNH
hPa
Press
MSL
hPa
Rain
since 9 am
mm
Dir
 
Spd
km/h
Gust
km/h
Spd
kts
Gust
kts
20/11:30pm 26.3 29.4 20.2 69 4.0 N 4 7 2 4 1014.7 1013.9 0.0
20/11:00pm 26.7 29.7 20.1 67 4.3 NNW 4 6 2 3 1014.6 1013.8 0.0
20/10:30pm 27.3 30.1 20.4 66 4.5 NW 6 9 3 5 1014.3 1013.5 0.0
20/10:00pm 27.6 30.1 20.2 64 4.9 WNW 7 11 4 6 1014.0 1013.2 0.0
20/09:30pm 27.8 30.4 20.4 64 4.9 WNW 7 15 4 8 1013.8 1013.0 0.0
20/09:00pm 28.0 29.9 20.6 64 4.9 WNW 11 19 6 10 1013.4 1012.6 0.0
20/08:30pm 28.3 30.6 21.3 65 4.7 W 11 19 6 10 1012.9 1012.1 0.0
20/08:00pm 28.7 30.8 21.0 63 5.1 NW 11 24 6 13 1012.4 1011.7 0.0
20/07:30pm 29.2 31.6 20.9 61 5.5 NW 9 13 5 7 1011.7 1011.0 0.0
20/07:00pm 29.9 30.5 21.0 59 6.0 WNW 19 28 10 15 1011.2 1010.5 0.0
20/06:30pm 30.8 31.8 21.0 56 6.6 WNW 17 30 9 16 1010.7 1010.0 0.0
20/06:00pm 33.4 35.2 19.5 44 9.2 NW 9 22 5 12 1010.2 1009.5 0.0
20/05:30pm 36.1 32.4 4.4 14 17.0 ENE 13 19 7 10 1009.4 1008.6 0.0
20/05:00pm 36.9 34.1 5.0 14 17.3 E 9 17 5 9 1009.3 1008.5 0.0
20/04:30pm 37.4 32.2 5.4 14 17.5 E 22 30 12 16 1009.1 1008.3 0.0
20/04:00pm 37.3 35.6 8.2 17 16.6 SE 7 11 4 6 1009.2 1008.4 0.0
20/03:30pm 37.1 33.8 8.0 17 16.6 ESE 15 26 8 14 1009.5 1008.8 0.0
20/03:00pm 36.7 34.1 9.3 19 15.9 ESE 13 32 7 17 1009.9 1009.2 0.0
20/02:30pm 37.0 32.6 10.3 20 15.7 E 24 30 13 16 1010.2 1009.5 0.0
20/02:00pm 36.3 32.9 10.5 21 15.2 ENE 19 24 10 13 1010.8 1010.1 0.0
20/01:30pm 35.1 33.1 11.5 24 14.0 E 13 19 7 10 1011.6 1010.9 0.0
20/01:00pm 35.5 33.2 11.8 24 14.2 ESE 15 24 8 13 1012.2 1011.5 0.0
20/12:30pm 34.0 32.4 12.9 28 12.7 E 13 20 7 11 1013.3 1012.5 0.0
20/12:00pm 34.9 32.1 13.1 27 13.2 ENE 20 28 11 15 1013.8 1013.0 0.0
20/11:30am 33.4 32.2 14.0 31 11.9 ESE 13 20 7 11 1014.2 1013.4 0.0
20/11:00am 33.5 31.0 14.0 30 11.9 ENE 20 28 11 15 1014.6 1013.8 0.0
20/10:30am 33.1 33.0 16.0 35 10.8 ESE 11 22 6 12 1015.1 1014.3 0.0
20/10:00am 31.6 32.5 17.5 43 9.0 E 9 15 5 8 1015.4 1014.6 0.0
20/09:30am 30.4 32.7 20.6 55 6.5 E 9 15 5 8 1015.6 1014.8 0.0
20/09:00am 29.6 32.6 21.3 61 5.6 E 7 9 4 5 1015.6 1014.8 0.0
20/08:30am 28.2 31.9 21.5 67 4.5 N 4 6 2 3 1015.4 1014.6 0.0
20/08:00am 26.9 30.1 21.2 71 3.8 N 6 9 3 5 1015.2 1014.4 0.0
20/07:30am 26.1 30.4 22.0 78 2.8 ENE 2 4 1 2 1014.8 1014.0 0.0
20/07:00am 24.7 29.4 22.0 85 1.8 CALM 0 0 0 0 1014.5 1013.7 0.0
20/06:30am 24.1 28.6 21.6 86 1.7 CALM 0 0 0 0 1014.3 1013.5 0.0
20/06:00am 24.4 28.9 21.5 84 1.9 CALM 0 0 0 0 1014.2 1013.4 0.0
20/05:30am 24.7 29.0 21.2 81 2.3 CALM 0 0 0 0 1013.9 1013.1 0.0
20/05:00am 25.1 29.3 21.0 78 2.7 CALM 0 2 0 1 1013.7 1012.9 0.0
20/04:30am 25.6 28.9 21.5 78 2.7 ENE 6 7 3 4 1013.5 1012.7 0.0
20/04:00am 26.1 29.4 21.5 76 3.1 NE 6 9 3 5 1013.5 1012.7 0.0
20/03:30am 26.3 29.7 21.7 76 3.1 NE 6 7 3 4 1013.2 1012.4 0.0
20/03:00am 26.2 30.0 21.6 76 3.1 ENE 4 6 2 3 1013.3 1012.5 0.0
20/02:30am 26.3 29.6 21.5 75 3.2 E 6 9 3 5 1013.3 1012.5 0.0
20/02:00am 26.4 29.7 21.4 74 3.3 NE 6 7 3 4 1013.5 1012.7 0.0
20/01:30am 25.3 29.4 20.8 76 3.0 CALM 0 4 0 2 1013.4 1012.6 0.0
20/01:00am 26.2 30.2 20.5 71 3.7 CALM 0 0 0 0 1013.6 1012.8 0.0
20/12:30am 26.8 30.0 20.6 69 4.1 NW 4 6 2 3 1013.9 1013.1 0.0
20/12:00am 27.1 30.9 20.2 66 4.5 CALM 0 0 0 0 1014.4 1013.6 0.0
 
Date/Time
CST
Temp
°C
App
Temp
°C
Dew
Point
Rel
Hum
%
Delta-T
°C
Wind Press
QNH
hPa
Press
MSL
hPa
Rain
since 9 am
mm
Dir
 
Spd
km/h
Gust
km/h
Spd
kts
Gust
kts
19/11:30pm 27.6 31.0 20.2 64 4.9 NW 2 2 1 1 1014.5 1013.7 0.0
19/11:00pm 27.2 30.5 20.0 64 4.7 NW 2 6 1 3 1014.4 1013.6 0.0
19/10:30pm 27.2 30.1 19.8 64 4.8 NW 4 4 2 2 1014.3 1013.5 0.0
19/10:00pm 27.7 30.6 19.8 62 5.2 NW 4 4 2 2 1013.8 1013.0 0.0
19/09:30pm 28.3 31.2 19.8 60 5.6 N 4 6 2 3 1013.5 1012.7 0.0
19/09:00pm 28.8 31.2 19.7 58 6.0 N 6 9 3 5 1013.1 1012.3 0.0
19/08:30pm 29.3 31.4 19.3 55 6.5 N 7 17 4 9 1012.5 1011.8 0.0
19/08:00pm 29.6 32.5 21.8 63 5.3 W 9 15 5 8 1011.8 1011.1 0.0
19/07:30pm 30.2 32.6 21.6 60 5.8 WNW 11 19 6 10 1011.3 1010.6 0.0
19/07:00pm 31.1 32.2 21.3 56 6.6 WNW 17 26 9 14 1010.9 1010.2 0.0
19/06:30pm 33.9 33.7 10.5 24 13.6 N 2 4 1 2 1009.6 1008.9 0.0
19/06:00pm 35.3 33.9 8.9 20 15.1 NNE 6 9 3 5 1009.4 1008.6 0.0
19/05:30pm 36.4 34.5 9.1 19 15.8 E 9 13 5 7 1009.2 1008.4 0.0

Other Formats:

Comma delimited format used in spreadsheet applications
http://www.bom.gov.au/fwo/IDD60801/IDD60801.94125.axf

JavaScript Object Notation format (JSON) in row-major order
http://www.bom.gov.au/fwo/IDD60801/IDD60801.94125.json